SCP
0 0 0 0 0 0 0 0 0 0 0 0 0 0 0 0 0 0 0 0 0 0 0 0 0 0 0 0 0 0 0 -0 0 0 0 0 0 0 0 0 0 0 0 0 0
0 0 0 0 0 0 0 0 0 0 0 0 0 0 0 0 0 0 0 0 0 0 0 0 0 0 0 0 0 0 0 -0 0 0 0 0 -0 -0 0 0 0 0 0 0 0
0 0 0 0 0 0 0 0 0 0 0 0 0 0 0 0 0 0 0 0 0 0 0 0 0 0 0 0 0 0 -0 0 0 0 0 0 -0 0 -0 0 0 0 0 0 0
0 0 0 0 0 0 0 0 0 0 0 0 0 0 0 -0 0 0 0 0 0 0 0 0 0 0 0 0 0 0 0 0 0 0 0 0 -0 -0 0 0 0 0 0 0 0
0 0 0 0 0 0 0 0 0 0 0 0 0 0 0 0 0 0 0 0 0 0 0 0 0 0 0 0 0 0 0 0 -0 0 0 0 0 -0 0 0 0 0 0 0 0
0 0 0 0 0 0 0 0 0 0 0 0 0 0 0 0 0 0 0 0 0 0 0 0 0 0 0 0 0 0 -0 -0 0 -0 0 0 0 0 -0 0 0 0 0 0 0
0 0 0 0 0 0 0 0 0 0 0 0 0 0 0 0 0 0 0 0 0 0 0 0 0 0 0 0 0 0 0 -0 0 -0 -0 0 -0 -0 0 0 0 0 0 0 0
0 0 0 0 0 0 0 0 0 0 0 0 0 0 0 0 0 0 0 0 0 0 0 0 0 0 0 0 0 0 0 -0 -0 0 0 0 -0 0 0 0 0 0 0 0 0
0 0 0 0 0 0 0 0 0 0 0 0 0 0 0 0 0 0 -0 -0 0 0 0 0 0 0 0 0 0 0 0 0 0 0 0 0 -0 0 0 0 0 0 0 0 0
0 0 0 0 0 0 0 0 0 0 0 0 0 0 0 0 0 0 0 0 -0 0 0 0 0 0 0 0 0 0 0 0 0 0 0 0 0 0 0 -0 0 0 0 0 0
0 0 0 0 0 0 0 -0 0 0 0 0 0 0 0 0 0 0 0 0 0 0 0 0 0 0 -0 0 -0 0 0 0 0 0 0 0 0 0 0 0 0 0 -0 -0 0
0 0 0 0 0 0 -0 -0 0 0 0 0 0 0 -0 0 0 0 0 0 0 0 0 0 0 0 0 0 0 0 0 0 0 0 0 0 -0 -0 0 0 0 -0 -0 -0 0
0 0 0 0 0 0 0 0 0 0 0 0 0 0 0 0 0 0 0 0 0 0 0 0 0 0 0 0 0 0 0 0 0 0 0 0 0 -0 0 0 0 -0 -0 -0 -0
0 0 0 0 0 0 0 0 -0 -0 -0 0 0 0 0 0 0 -0 0 0 0 0 0 0 0 0 0 0 0 0 0 0 0 0 0 0 0 0 0 -0 0 0 -0 -0 -0
0 0 0 0 0 0 0 0 -0 -0 -0 0 0 0 0 -0 0 0 0 0 0 0 0 0 0 0 0 0 0 0 0 0 0 0 0 0 0 0 0 0 0 0 0 0 -0
0 0 0 0 0 0 0 0 -0 -0 0 0 0 0 0 0 0 0 0 0 0 0 0 0 0 0 0 0 0 0 0 0 0 0 0 0 0 0 0 0 -0 0 0 0 0
0 0 0 0 0 0 0 0 -0 0 0 0 0 0 0 0 0 0 0 0 0 0 0 0 0 0 0 0 0 0 0 0 0 0 0 0 0 -0 0 0 -0 -0 0 0 0
0 0 0 0 0 0 0 0 0 0 0 0 0 0 0 0 0 0 0 0 0 0 0 0 0 0 0 0 0 0 0 0 0 0 0 0 0 0 0 0 -0 -0 -0 0 0
0 0 0 0 0 0 0 0 0 0 0 0 0 0 0 0 0 0 0 0 0 0 0 0 0 0 0 0 0 0 0 0 0 0 0 0 0 0 0 -0 -0 -0 0 0 0
0 0 0 0 0 0 0 0 0 0 0 0 0 0 0 0 0 0 0 0 0 0 0 0 0 0 0 0 0 0 0 0 0 0 0 0 0 0 0 0 0 0 0 0 0
0 0 0 0 0 0 0 0 0 0 0 0 0 0 0 0 0 0 0 0 0 0 0 0 0 0 0 0 0 0 0 0 0 0 0 0 0 0 0 0 0 0 0 0 0
0 0 0 0 0 0 0 0 0 0 0 0 0 0 0 0 0 0 0 0 0 0 0 0 0 0 0 0 0 0 0 0 0 0 0 0 0 0 0 0 0 0 0 0 0
0 0 0 0 0 0 0 0 0 0 0 0 0 0 0 0 0 0 0 0 0 0 0 0 0 0 0 0 0 0 0 0 0 0 0 0 0 0 0 0 0 0 0 0 0
0 0 0 0 0 0 0 0 0 0 0 0 0 0 0 0 0 0 0 0 0 0 0 0 0 0 0 0 0 0 0 0 0 0 0 0 0 0 0 0 0 0 0 0 0
0 0 0 0 0 0 0 0 0 0 0 0 0 0 0 0 0 0 0 0 0 0 0 0 0 0 0 0 0 0 0 0 0 0 0 0 0 0 0 0 0 0 0 0 0
0 0 0 0 0 0 0 0 0 0 0 0 0 0 0 0 0 0 0 0 0 0 0 0 0 0 0 0 0 0 0 0 0 0 0 -0 -0 0 0 0 0 0 0 0 0
0 0 0 0 0 0 0 0 0 0 0 0 0 0 0 0 0 0 0 0 0 0 0 0 0 0 0 0 0 0 0 0 0 0 0 0 0 0 0 0 0 0 0 0 0
Wind_Speed_500mb
32 33 35 36 39 40 42 45 46 44 44 46 49 47 48 51 50 46 44 32 28 26 34 41 35 27 33 30 21 16 14 20 25 22 14 6 12 5 8 16 14 15 17 14 13
30 30 32 35 39 43 44 44 45 46 43 43 42 49 46 51 57 49 23 31 35 30 41 44 38 35 38 32 22 24 21 25 11 14 13 14 14 20 12 17 23 23 21 15 11
27 30 33 36 38 39 42 44 43 44 46 43 41 43 47 46 43 4 22 17 28 33 28 34 29 38 38 28 33 27 28 19 16 21 20 21 21 12 15 19 24 21 15 16 11
30 31 33 36 40 42 42 42 47 46 45 47 40 42 38 34 13 6 21 13 14 34 28 28 31 43 35 28 38 22 33 26 24 17 18 19 18 19 21 23 5 10 10 15 12
34 34 36 39 42 44 44 44 44 45 44 46 44 41 39 16 32 44 33 17 5 36 24 29 34 43 34 33 25 36 22 22 32 28 26 24 29 24 24 15 12 10 12 14 12
33 35 40 42 45 47 48 46 47 45 42 43 47 39 29 28 22 37 25 5 20 26 26 23 20 37 24 24 34 18 41 30 27 31 23 23 28 10 9 15 17 18 16 15 14
31 36 39 39 43 47 50 52 51 46 45 46 42 37 29 53 27 51 59 51 40 31 30 27 28 22 20 21 36 27 23 28 31 34 31 22 34 29 18 19 21 24 20 20 17
33 36 40 38 42 47 52 52 49 45 42 40 33 24 25 30 25 58 51 52 37 31 34 26 23 28 27 15 11 27 27 30 30 19 17 25 36 9 10 23 27 27 25 22 23
35 36 37 38 43 49 52 50 42 32 25 27 14 17 22 24 40 38 36 29 31 44 29 16 20 32 28 26 25 25 28 31 23 18 11 24 30 9 10 23 27 28 29 27 23
34 35 34 35 42 47 52 40 19 18 18 9 2 12 26 9 8 11 9 11 13 29 23 28 26 25 29 32 34 32 29 31 27 17 21 25 30 22 17 26 31 28 30 31 28
32 32 32 34 38 44 42 21 14 3 21 25 23 27 25 19 20 16 23 17 13 35 31 45 29 39 49 43 40 22 24 27 13 7 13 26 29 24 13 27 29 30 34 36 34
29 28 29 32 33 25 26 15 13 18 30 49 60 64 59 36 21 23 24 26 28 29 38 20 39 41 35 37 41 36 30 26 12 11 20 27 28 28 9 19 25 30 35 38 37
27 26 26 30 28 11 17 11 16 28 16 29 17 23 19 41 32 23 26 20 23 33 39 41 17 36 27 32 39 42 37 28 23 6 22 21 31 33 23 18 19 29 33 37 44
26 23 23 26 9 19 7 20 19 26 9 7 5 4 6 11 15 42 37 28 22 31 29 32 45 11 38 44 38 38 34 32 25 17 21 14 28 31 22 29 23 27 33 37 44
25 23 22 19 18 11 18 16 15 4 12 13 5 6 7 12 17 5 29 58 36 24 18 24 24 40 35 36 37 32 13 26 29 27 26 28 18 27 17 27 31 28 32 35 41
25 23 22 15 15 15 15 18 6 8 9 6 3 15 9 17 10 3 3 27 44 30 30 30 11 27 38 25 24 8 16 15 13 15 23 31 23 21 25 27 20 18 20 23 33
26 23 22 18 9 15 16 9 8 11 9 11 12 24 21 11 8 13 12 26 22 32 33 26 27 11 19 33 26 30 23 14 18 17 20 9 21 32 11 21 22 19 19 14 24
27 26 25 24 15 12 7 8 13 4 9 14 15 26 10 17 1 10 10 19 34 24 18 28 18 31 26 27 18 42 35 11 12 18 17 16 16 22 14 16 24 23 23 12 23
25 23 29 23 16 17 8 10 5 6 8 15 24 11 6 18 11 8 11 6 16 29 15 25 26 19 29 17 26 25 38 33 21 4 8 14 9 19 18 16 12 20 15 18 21
20 20 32 21 22 27 9 14 13 11 3 8 9 8 9 20 17 15 6 18 7 20 17 13 12 18 31 37 34 22 22 16 20 21 25 19 18 12 6 14 17 14 15 12 16
16 11 11 13 32 21 13 17 22 28 11 6 5 11 9 15 20 18 11 9 25 14 14 15 10 12 21 28 34 28 25 15 11 20 16 16 10 7 12 21 23 22 7 14 23
15 8 15 27 17 8 12 19 14 15 16 22 15 14 15 17 16 13 7 14 27 32 4 11 5 15 20 9 11 24 34 37 19 21 11 10 13 10 11 17 23 20 28 33 29
16 20 17 29 11 16 9 16 21 21 21 13 14 7 11 17 11 13 9 7 20 23 17 10 13 18 20 12 10 7 7 8 6 5 20 16 7 4 24 24 28 33 32 34 33
13 7 21 27 28 18 31 27 27 24 29 21 15 12 9 21 22 12 9 7 19 16 25 19 5 13 20 5 5 14 11 6 9 12 17 20 18 14 23 31 32 37 41 42 40
23 10 16 11 26 30 24 9 34 25 30 31 20 30 19 13 24 22 13 12 12 15 8 4 5 5 3 3 2 8 14 14 13 12 13 16 18 16 18 24 33 36 44 50 51
16 14 15 30 21 30 36 29 35 24 23 26 28 19 27 34 31 16 12 20 14 11 13 12 9 9 11 10 12 16 17 18 20 22 22 29 33 24 26 27 33 41 43 45 52
45 36 15 19 31 25 26 30 30 25 31 42 28 21 23 31 34 33 31 28 27 16 10 9 5 9 18 6 11 17 30 32 25 23 18 21 17 21 24 26 38 49 48 52 60
Wind_Direction_500mb
320 324 323 324 328 325 320 323 319 317 322 317 320 318 316 315 310 310 292 268 262 242 215 197 193 191 191 207 206 203 236 246 230 218 217 189 273 209 271 264 236 239 257 265 274
322 325 326 326 326 326 325 320 317 316 312 313 313 315 319 317 315 308 285 266 239 218 201 198 194 187 197 211 207 213 228 243 245 219 250 274 272 289 249 251 253 252 249 252 261
328 329 329 329 327 326 322 317 316 313 310 311 310 313 316 323 320 237 324 290 234 205 201 198 203 191 213 208 208 214 241 229 225 240 282 292 289 246 259 276 265 267 244 229 239
328 328 327 326 325 322 321 323 313 306 312 315 311 304 315 321 282 311 357 350 201 184 185 195 192 203 214 209 212 238 229 234 241 260 253 277 293 265 258 277 254 233 222 209 227
326 326 325 324 322 321 318 314 313 310 309 309 304 303 306 283 266 303 294 262 217 172 193 197 204 213 222 217 208 232 224 218 236 252 258 277 268 277 269 255 225 206 183 207 216
325 325 324 324 323 322 319 313 311 311 306 294 296 299 295 267 280 292 292 294 230 220 223 206 218 222 273 228 216 222 241 229 238 252 252 255 270 257 273 204 197 195 195 204 212
320 324 323 325 326 325 321 321 317 312 300 293 290 287 267 254 282 264 283 279 270 244 230 225 229 240 242 242 230 237 241 225 228 247 258 248 261 238 260 201 204 207 204 201 207
315 321 322 325 323 324 326 325 326 310 302 296 288 254 253 271 239 263 275 272 262 238 230 228 227 242 254 260 213 224 235 247 230 231 237 225 262 193 192 201 212 213 211 211 209
311 315 318 322 323 328 331 331 325 310 307 297 272 210 260 256 232 242 257 269 253 232 229 216 204 219 223 236 227 214 239 223 236 214 227 220 256 121 196 214 225 214 215 217 211
305 313 317 320 326 337 337 341 332 321 342 331 190 225 248 255 239 194 203 256 216 191 197 210 206 209 217 219 226 228 227 245 243 166 216 226 248 270 238 238 230 216 219 218 216
300 310 315 316 330 344 355 5 355 299 321 266 261 251 289 307 275 234 207 244 200 189 198 199 206 213 216 220 237 271 259 254 234 171 238 239 253 259 240 231 224 220 219 220 219
298 306 312 315 333 360 21 56 55 327 296 281 267 262 258 273 298 229 193 190 207 209 210 184 224 222 227 223 233 236 245 246 249 258 241 250 250 263 229 229 230 223 221 221 214
292 300 308 311 331 2 24 54 337 331 282 297 278 266 255 218 233 240 203 217 219 226 207 219 222 229 215 217 223 229 235 245 255 191 244 270 255 249 225 220 231 230 232 220 214
286 292 303 312 7 332 337 335 322 328 283 290 329 324 169 186 228 243 234 235 214 232 221 232 236 207 210 223 218 230 224 246 248 257 259 205 259 250 240 248 208 232 221 220 212
282 284 292 305 298 324 308 329 323 328 298 2 58 332 166 196 321 209 238 227 247 227 193 220 227 214 219 224 217 243 218 232 240 245 267 239 257 261 254 253 247 234 216 218 213
276 276 285 303 291 299 334 337 321 238 256 331 6 337 276 238 258 276 345 201 227 252 231 255 217 228 225 216 217 225 186 195 214 233 243 244 237 263 245 240 256 235 206 211 210
275 270 267 270 262 302 336 331 221 236 15 348 331 326 318 295 219 204 184 192 198 207 228 224 221 197 231 216 215 219 200 209 217 210 236 215 209 244 264 261 267 260 251 165 202
273 265 260 253 247 263 330 210 230 74 289 338 320 320 353 355 53 213 181 206 225 224 218 221 215 209 186 207 183 202 192 205 220 218 228 153 223 245 270 295 276 249 265 233 196
272 273 266 257 228 208 186 205 253 231 308 327 317 326 13 16 319 301 199 259 238 205 219 204 234 178 196 185 198 194 225 234 263 226 257 209 208 265 238 263 235 239 241 231 202
272 279 267 239 194 187 202 233 217 224 297 320 295 2 339 352 2 1 9 16 319 239 224 229 239 205 196 197 210 218 174 184 214 228 233 233 242 255 210 254 296 250 238 280 280
259 261 248 179 183 192 217 224 212 237 232 274 277 301 310 333 337 345 11 67 3 332 232 254 260 140 164 202 205 202 211 233 249 235 247 244 211 231 296 9 338 316 300 319 324
226 233 233 185 185 200 215 225 215 224 232 240 269 265 278 307 306 312 327 318 349 338 228 206 284 183 164 103 338 210 221 220 225 198 230 281 237 112 24 350 342 335 323 318 323
225 228 244 193 209 217 217 226 229 219 217 210 235 250 285 272 280 250 284 4 8 344 359 357 221 211 225 213 213 208 145 159 195 290 240 231 214 342 312 317 322 319 321 321 328
231 219 210 218 237 248 214 229 216 223 235 223 241 232 264 258 241 269 278 318 348 2 319 307 206 243 226 223 134 178 152 140 219 214 243 242 275 289 295 301 296 297 309 310 315
219 226 216 193 224 234 237 248 221 216 217 219 235 235 231 259 235 239 260 302 320 7 317 333 234 241 137 116 253 202 199 189 212 237 233 255 250 262 267 277 298 311 305 307 308
214 207 226 247 227 205 220 233 243 236 215 216 228 209 221 233 250 278 289 290 297 326 342 344 236 241 257 264 247 259 253 249 242 241 250 250 259 264 289 288 302 307 310 313 304
224 233 227 241 228 236 222 225 238 246 238 236 226 219 221 239 258 271 281 269 264 277 315 309 231 202 252 307 292 263 237 236 240 238 247 269 293 325 303 300 304 302 303 308 310
Wind_Speed_850mb
32 33 35 36 39 40 42 45 46 44 44 46 49 47 48 51 50 46 44 32 28 26 34 41 35 27 33 30 21 16 14 20 25 22 14 6 12 5 8 16 14 15 17 14 13
30 30 32 35 39 43 44 44 45 46 43 43 42 49 46 51 57 49 23 31 35 30 41 44 38 35 38 32 22 24 21 25 11 14 13 14 14 20 12 17 23 23 21 15 11
27 30 33 36 38 39 42 44 43 44 46 43 41 43 47 46 43 4 22 17 28 33 28 34 29 38 38 28 33 27 28 19 16 21 20 21 21 12 15 19 24 21 15 16 11
30 31 33 36 40 42 42 42 47 46 45 47 40 42 38 34 13 6 21 13 14 34 28 28 31 43 35 28 38 22 33 26 24 17 18 19 18 19 21 23 5 10 10 15 12
34 34 36 39 42 44 44 44 44 45 44 46 44 41 39 16 32 44 33 17 5 36 24 29 34 43 34 33 25 36 22 22 32 28 26 24 29 24 24 15 12 10 12 14 12
33 35 40 42 45 47 48 46 47 45 42 43 47 39 29 28 22 37 25 5 20 26 26 23 20 37 24 24 34 18 41 30 27 31 23 23 28 10 9 15 17 18 16 15 14
31 36 39 39 43 47 50 52 51 46 45 46 42 37 29 53 27 51 59 51 40 31 30 27 28 22 20 21 36 27 23 28 31 34 31 22 34 29 18 19 21 24 20 20 17
33 36 40 38 42 47 52 52 49 45 42 40 33 24 25 30 25 58 51 52 37 31 34 26 23 28 27 15 11 27 27 30 30 19 17 25 36 9 10 23 27 27 25 22 23
35 36 37 38 43 49 52 50 42 32 25 27 14 17 22 24 40 38 36 29 31 44 29 16 20 32 28 26 25 25 28 31 23 18 11 24 30 9 10 23 27 28 29 27 23
34 35 34 35 42 47 52 40 19 18 18 9 2 12 26 9 8 11 9 11 13 29 23 28 26 25 29 32 34 32 29 31 27 17 21 25 30 22 17 26 31 28 30 31 28
32 32 32 34 38 44 42 21 14 3 21 25 23 27 25 19 20 16 23 17 13 35 31 45 29 39 49 43 40 22 24 27 13 7 13 26 29 24 13 27 29 30 34 36 34
29 28 29 32 33 25 26 15 13 18 30 49 60 64 59 36 21 23 24 26 28 29 38 20 39 41 35 37 41 36 30 26 12 11 20 27 28 28 9 19 25 30 35 38 37
27 26 26 30 28 11 17 11 16 28 16 29 17 23 19 41 32 23 26 20 23 33 39 41 17 36 27 32 39 42 37 28 23 6 22 21 31 33 23 18 19 29 33 37 44
26 23 23 26 9 19 7 20 19 26 9 7 5 4 6 11 15 42 37 28 22 31 29 32 45 11 38 44 38 38 34 32 25 17 21 14 28 31 22 29 23 27 33 37 44
25 23 22 19 18 11 18 16 15 4 12 13 5 6 7 12 17 5 29 58 36 24 18 24 24 40 35 36 37 32 13 26 29 27 26 28 18 27 17 27 31 28 32 35 41
25 23 22 15 15 15 15 18 6 8 9 6 3 15 9 17 10 3 3 27 44 30 30 30 11 27 38 25 24 8 16 15 13 15 23 31 23 21 25 27 20 18 20 23 33
26 23 22 18 9 15 16 9 8 11 9 11 12 24 21 11 8 13 12 26 22 32 33 26 27 11 19 33 26 30 23 14 18 17 20 9 21 32 11 21 22 19 19 14 24
27 26 25 24 15 12 7 8 13 4 9 14 15 26 10 17 1 10 10 19 34 24 18 28 18 31 26 27 18 42 35 11 12 18 17 16 16 22 14 16 24 23 23 12 23
25 23 29 23 16 17 8 10 5 6 8 15 24 11 6 18 11 8 11 6 16 29 15 25 26 19 29 17 26 25 38 33 21 4 8 14 9 19 18 16 12 20 15 18 21
20 20 32 21 22 27 9 14 13 11 3 8 9 8 9 20 17 15 6 18 7 20 17 13 12 18 31 37 34 22 22 16 20 21 25 19 18 12 6 14 17 14 15 12 16
16 11 11 13 32 21 13 17 22 28 11 6 5 11 9 15 20 18 11 9 25 14 14 15 10 12 21 28 34 28 25 15 11 20 16 16 10 7 12 21 23 22 7 14 23
15 8 15 27 17 8 12 19 14 15 16 22 15 14 15 17 16 13 7 14 27 32 4 11 5 15 20 9 11 24 34 37 19 21 11 10 13 10 11 17 23 20 28 33 29
16 20 17 29 11 16 9 16 21 21 21 13 14 7 11 17 11 13 9 7 20 23 17 10 13 18 20 12 10 7 7 8 6 5 20 16 7 4 24 24 28 33 32 34 33
13 7 21 27 28 18 31 27 27 24 29 21 15 12 9 21 22 12 9 7 19 16 25 19 5 13 20 5 5 14 11 6 9 12 17 20 18 14 23 31 32 37 41 42 40
23 10 16 11 26 30 24 9 34 25 30 31 20 30 19 13 24 22 13 12 12 15 8 4 5 5 3 3 2 8 14 14 13 12 13 16 18 16 18 24 33 36 44 50 51
16 14 15 30 21 30 36 29 35 24 23 26 28 19 27 34 31 16 12 20 14 11 13 12 9 9 11 10 12 16 17 18 20 22 22 29 33 24 26 27 33 41 43 45 52
45 36 15 19 31 25 26 30 30 25 31 42 28 21 23 31 34 33 31 28 27 16 10 9 5 9 18 6 11 17 30 32 25 23 18 21 17 21 24 26 38 49 48 52 60
Wind_Direction_850mb
320 324 323 324 328 325 320 323 319 317 322 317 320 318 316 315 310 310 292 268 262 242 215 197 193 191 191 207 206 203 236 246 230 218 217 189 273 209 271 264 236 239 257 265 274
322 325 326 326 326 326 325 320 317 316 312 313 313 315 319 317 315 308 285 266 239 218 201 198 194 187 197 211 207 213 228 243 245 219 250 274 272 289 249 251 253 252 249 252 261
328 329 329 329 327 326 322 317 316 313 310 311 310 313 316 323 320 237 324 290 234 205 201 198 203 191 213 208 208 214 241 229 225 240 282 292 289 246 259 276 265 267 244 229 239
328 328 327 326 325 322 321 323 313 306 312 315 311 304 315 321 282 311 357 350 201 184 185 195 192 203 214 209 212 238 229 234 241 260 253 277 293 265 258 277 254 233 222 209 227
326 326 325 324 322 321 318 314 313 310 309 309 304 303 306 283 266 303 294 262 217 172 193 197 204 213 222 217 208 232 224 218 236 252 258 277 268 277 269 255 225 206 183 207 216
325 325 324 324 323 322 319 313 311 311 306 294 296 299 295 267 280 292 292 294 230 220 223 206 218 222 273 228 216 222 241 229 238 252 252 255 270 257 273 204 197 195 195 204 212
320 324 323 325 326 325 321 321 317 312 300 293 290 287 267 254 282 264 283 279 270 244 230 225 229 240 242 242 230 237 241 225 228 247 258 248 261 238 260 201 204 207 204 201 207
315 321 322 325 323 324 326 325 326 310 302 296 288 254 253 271 239 263 275 272 262 238 230 228 227 242 254 260 213 224 235 247 230 231 237 225 262 193 192 201 212 213 211 211 209
311 315 318 322 323 328 331 331 325 310 307 297 272 210 260 256 232 242 257 269 253 232 229 216 204 219 223 236 227 214 239 223 236 214 227 220 256 121 196 214 225 214 215 217 211
305 313 317 320 326 337 337 341 332 321 342 331 190 225 248 255 239 194 203 256 216 191 197 210 206 209 217 219 226 228 227 245 243 166 216 226 248 270 238 238 230 216 219 218 216
300 310 315 316 330 344 355 5 355 299 321 266 261 251 289 307 275 234 207 244 200 189 198 199 206 213 216 220 237 271 259 254 234 171 238 239 253 259 240 231 224 220 219 220 219
298 306 312 315 333 360 21 56 55 327 296 281 267 262 258 273 298 229 193 190 207 209 210 184 224 222 227 223 233 236 245 246 249 258 241 250 250 263 229 229 230 223 221 221 214
292 300 308 311 331 2 24 54 337 331 282 297 278 266 255 218 233 240 203 217 219 226 207 219 222 229 215 217 223 229 235 245 255 191 244 270 255 249 225 220 231 230 232 220 214
286 292 303 312 7 332 337 335 322 328 283 290 329 324 169 186 228 243 234 235 214 232 221 232 236 207 210 223 218 230 224 246 248 257 259 205 259 250 240 248 208 232 221 220 212
282 284 292 305 298 324 308 329 323 328 298 2 58 332 166 196 321 209 238 227 247 227 193 220 227 214 219 224 217 243 218 232 240 245 267 239 257 261 254 253 247 234 216 218 213
276 276 285 303 291 299 334 337 321 238 256 331 6 337 276 238 258 276 345 201 227 252 231 255 217 228 225 216 217 225 186 195 214 233 243 244 237 263 245 240 256 235 206 211 210
275 270 267 270 262 302 336 331 221 236 15 348 331 326 318 295 219 204 184 192 198 207 228 224 221 197 231 216 215 219 200 209 217 210 236 215 209 244 264 261 267 260 251 165 202
273 265 260 253 247 263 330 210 230 74 289 338 320 320 353 355 53 213 181 206 225 224 218 221 215 209 186 207 183 202 192 205 220 218 228 153 223 245 270 295 276 249 265 233 196
272 273 266 257 228 208 186 205 253 231 308 327 317 326 13 16 319 301 199 259 238 205 219 204 234 178 196 185 198 194 225 234 263 226 257 209 208 265 238 263 235 239 241 231 202
272 279 267 239 194 187 202 233 217 224 297 320 295 2 339 352 2 1 9 16 319 239 224 229 239 205 196 197 210 218 174 184 214 228 233 233 242 255 210 254 296 250 238 280 280
259 261 248 179 183 192 217 224 212 237 232 274 277 301 310 333 337 345 11 67 3 332 232 254 260 140 164 202 205 202 211 233 249 235 247 244 211 231 296 9 338 316 300 319 324
226 233 233 185 185 200 215 225 215 224 232 240 269 265 278 307 306 312 327 318 349 338 228 206 284 183 164 103 338 210 221 220 225 198 230 281 237 112 24 350 342 335 323 318 323
225 228 244 193 209 217 217 226 229 219 217 210 235 250 285 272 280 250 284 4 8 344 359 357 221 211 225 213 213 208 145 159 195 290 240 231 214 342 312 317 322 319 321 321 328
231 219 210 218 237 248 214 229 216 223 235 223 241 232 264 258 241 269 278 318 348 2 319 307 206 243 226 223 134 178 152 140 219 214 243 242 275 289 295 301 296 297 309 310 315
219 226 216 193 224 234 237 248 221 216 217 219 235 235 231 259 235 239 260 302 320 7 317 333 234 241 137 116 253 202 199 189 212 237 233 255 250 262 267 277 298 311 305 307 308
214 207 226 247 227 205 220 233 243 236 215 216 228 209 221 233 250 278 289 290 297 326 342 344 236 241 257 264 247 259 253 249 242 241 250 250 259 264 289 288 302 307 310 313 304
224 233 227 241 228 236 222 225 238 246 238 236 226 219 221 239 258 271 281 269 264 277 315 309 231 202 252 307 292 263 237 236 240 238 247 269 293 325 303 300 304 302 303 308 310